Regional Weather Roundup
Issued by NWS

Home | Current Version | Previous Version | Graphics & Text | Print | Product List | Glossary On
Versions: 1 2 3 4 5 6 7 8 9 10 11 12 13 14 15 16 17 18 19 20 21 22 23 24 25 26 27 28 29 30 31 32 33 34 35 36 37 38 39 40 41 42 43 44 45 46 47 48 49 50
000
ASUS44 KMEG 162200
RWRTN
TENNESSEE HOURLY STATE WEATHER ROUNDUP
NATIONAL WEATHER SERVICE MEMPHIS TN
400 PM CST SAT DEC 16 2017

TNZ002-004-019-021-049-052-054-088>092-162300-
WEST TENNESSEE

CITY           SKY/WX    TMP DP  RH WIND       PRES   REMARKS
MEMPHIS INTL   CLOUDY    52  32  46 SW8       30.15F
NWS MEMPHIS      N/A     52 N/A N/A MISG        N/A
JACKSON        PTCLDY    52  30  43 S8        30.16S
DYERSBURG      CLOUDY    52  30  43 SW7       30.15R
$$

TNZ008-025-027-028-033-062-065-066-162300-
NORTH MIDDLE TENNESSEE

CITY           SKY/WX    TMP DP  RH WIND       PRES   REMARKS
NASHVILLE      CLOUDY    50  28  42 S10       30.18R
CLARKSVILLE    CLOUDY    51  26  37 SW8       30.14R
SMYRNA         CLOUDY    49  29  46 S9        30.20R
CROSSVILLE     CLOUDY    42  27  55 S6        30.18R
$$

TNZ061-075-076-078-094-096-097-162300-
SOUTH MIDDLE TENNESSEE

CITY           SKY/WX    TMP DP  RH WIND       PRES   REMARKS
WINCHESTER     CLEAR     48  27  43 SW3       30.21R
$$

TNZ017-018-042-046-047-162300-
NORTHEAST TENNESSEE

CITY           SKY/WX    TMP DP  RH WIND       PRES   REMARKS
TRI CITIES     MOCLDY    42  27  55 SW7       30.20R
$$

TNZ012-013-036-069-073-074-162300-
CENTRAL EAST TENNESSEE

CITY           SKY/WX    TMP DP  RH WIND       PRES   REMARKS
KNOXVILLE      CLOUDY    44  32  62 SW7       30.20S
OAK RIDGE      CLOUDY    46  29  51 SW3       30.22R
$$

TNZ083-085-099-162300-
SOUTHEAST TENNESSEE

CITY           SKY/WX    TMP DP  RH WIND       PRES   REMARKS
CHATTANOOGA    CLOUDY    49  28  44 S7        30.23S
$$

SKY/WX REPORTED AS FAIR MEANS FEW OR NO CLOUDS BELOW
12 THOUSAND FEET.




USA.gov is the U.S. government's official web portal to all federal, state and local government web resources and services.